This is the latest recevied weather packets stored in our database for station/object WX5RP. If no packets are shown the sender has not sent any weather packets the latest 10 day(s).
| Time | Temp. | Humidity | Pressure | Rain* | Wind** | Luminosity | Snow |
|---|---|---|---|---|---|---|---|
| 1788096617 | -1.11° C | 84% | 1021.9 hPa | 0 mm | - | 6 W/m² | - |
| 1788096017 | -1.67° C | 83% | 1021.6 hPa | 0 mm | - | 0 W/m² | - |
| 1788095417 | -1.67° C | 83% | 1020.3 hPa | 0 mm | - | 0 W/m² | - |
| 1788094817 | -1.67° C | 82% | 1020.6 hPa | 0 mm | - | 0 W/m² | - |
| 1788094217 | -1.67° C | 82% | 1020.9 hPa | 0 mm | - | 0 W/m² | - |
| 1788093617 | -1.67° C | 81% | 1020.8 hPa | 0 mm | - | 0 W/m² | - |
| 1788093016 | -1.11° C | 81% | 1020.8 hPa | 0 mm | - | 0 W/m² | - |
| 1788092417 | -1.67° C | 80% | 1021 hPa | 0 mm | - | 0 W/m² | - |
| 1788091817 | -2.22° C | 79% | 1020.8 hPa | 0 mm | - | 0 W/m² | - |
| 1788091217 | -1.11° C | 78% | 1021.2 hPa | 0 mm | - | 0 W/m² | - |
| 1788090616 | -0.56° C | 79% | 1020.9 hPa | 0 mm | - | 0 W/m² | - |
| 1788090017 | -1.11° C | 79% | 1020.9 hPa | 0 mm | - | 0 W/m² | - |
| 1788089417 | -0.56° C | 79% | 1021.2 hPa | 0 mm | - | 0 W/m² | - |
| 1788088816 | -1.11° C | 79% | 1021.7 hPa | 0 mm | - | 0 W/m² | - |
| 1788088216 | -1.67° C | 77% | 1020.7 hPa | 0 mm | - | 0 W/m² | - |
| 1788087617 | -1.11° C | 77% | 1021.1 hPa | 0 mm | - | 0 W/m² | - |
| 1788087016 | -0.56° C | 76% | 1020.3 hPa | 0 mm | - | 0 W/m² | - |
| 1788086416 | 0° C | 77% | 1020.5 hPa | 0 mm | - | 0 W/m² | - |
| 1788085816 | 0.56° C | 76% | 1020.8 hPa | 0 mm | - | 0 W/m² | - |
| 1788085216 | 0.56° C | 76% | 1020.8 hPa | 0 mm | - | 0 W/m² | - |
| 1788084616 | 1.11° C | 76% | 1020.7 hPa | 0 mm | - | 0 W/m² | - |
| 1788084016 | 1.67° C | 76% | 1020.7 hPa | 0 mm | - | 0 W/m² | - |
| 1788083417 | 0.56° C | 75% | 1020.7 hPa | 0 mm | - | 0 W/m² | - |
| 1788082816 | 1.11° C | 74% | 1020.6 hPa | 0 mm | - | 0 W/m² | - |
| 1788082216 | 1.67° C | 77% | 1020.6 hPa | 0 mm | - | 0 W/m² | - |
* Rain latest hour (hover to see other rain measurements)
** Current wind speed in m/s (hover to see current wind gust speed)